Location: *
(45.4590°N, 16.3650°E)
Time: 18:42:03
(UTC+00:00)

Cosmos 1626 - Pass Details

Date: 17 January 2020
Orbit: 492 x 495 km, 82.5° (Epoch: 25 February)

Event Time Altitude Azimuth Distance (km) Brightness Sun altitude
Rises 17:48:15 0° 213° (SSW) 2,565 6.3 -22.1°
Reaches altitude 10° 17:50:33 10° 225° (SW) 1,689 5.5 -22.5°
Maximum altitude 17:53:47 28° 286° (WNW) 955 4.1 -23.1°
Drops below altitude 10° 17:57:03 10° 347° (NNW) 1,703 4.9 -23.7°
Enters shadow 17:57:28 - 350° (N) 1,857 5.0 -23.7°
